Time,TemperatureF,DewpointF,PressureIn,WindDirection,WindDirectionDegrees,WindSpeedMPH,WindSpeedGustMPH,Humidity,HourlyPrecipIn,Conditions,Clouds,dailyrainin,SoftwareType,DateUTC
2013-04-10 00:04:00,17.2,4.1,29.55,North,0,0.0,-999.0,55,0.00,,,-99.99,,2013-04-10 08:04:00,
2013-04-10 00:09:00,17.1,3.9,29.55,North,0,0.0,-999.0,55,0.00,,,-99.99,,2013-04-10 08:09:00,
2013-04-10 00:14:00,16.7,2.5,29.55,North,0,0.0,-999.0,53,0.00,,,-99.99,,2013-04-10 08:14:00,
2013-04-10 00:19:00,16.6,2.6,29.55,North,0,0.0,-999.0,53,0.00,,,-99.99,,2013-04-10 08:19:00,
2013-04-10 00:24:00,16.5,3.0,29.55,North,0,0.0,-999.0,54,0.00,,,-99.99,,2013-04-10 08:24:00,
2013-04-10 00:29:00,16.4,2.1,29.55,North,0,0.0,-999.0,52,0.00,,,-99.99,,2013-04-10 08:29:00,
2013-04-10 00:34:00,16.3,2.2,29.55,North,0,0.0,-999.0,53,0.00,,,-99.99,,2013-04-10 08:34:00,
2013-04-10 00:39:00,16.5,1.9,29.55,North,0,0.0,-999.0,51,0.00,,,-99.99,,2013-04-10 08:39:00,
2013-04-10 00:44:00,16.3,2.1,29.55,North,0,0.0,-999.0,53,0.00,,,-99.99,,2013-04-10 08:44:00,
2013-04-10 00:49:00,16.3,1.7,29.55,North,0,0.0,-999.0,51,0.00,,,-99.99,,2013-04-10 08:49:00,
2013-04-10 00:54:00,16.3,1.8,29.55,North,0,0.0,-999.0,51,0.00,,,-99.99,,2013-04-10 08:54:00,
2013-04-10 00:59:00,16.6,1.1,29.58,North,0,0.0,-999.0,49,0.00,,,-99.99,,2013-04-10 08:59:00,
2013-04-10 01:04:00,16.9,2.2,29.58,North,0,0.0,-999.0,51,0.00,,,-99.99,,2013-04-10 09:04:00,
2013-04-10 01:09:00,17.3,3.3,29.58,North,0,0.0,-999.0,53,0.00,,,-99.99,,2013-04-10 09:09:00,
2013-04-10 01:14:00,17.0,1.5,29.58,North,0,0.0,-999.0,49,0.00,,,-99.99,,2013-04-10 09:14:00,
2013-04-10 01:19:00,16.8,1.7,29.58,North,0,0.0,-999.0,50,0.00,,,-99.99,,2013-04-10 09:19:00,
2013-04-10 01:24:00,17.0,1.2,29.58,North,0,0.0,-999.0,49,0.00,,,-99.99,,2013-04-10 09:24:00,
2013-04-10 01:29:00,16.8,2.0,29.58,North,0,0.0,-999.0,51,0.00,,,-99.99,,2013-04-10 09:29:00,
2013-04-10 01:34:00,17.0,3.1,29.58,North,0,0.0,-999.0,53,0.00,,,-99.99,,2013-04-10 09:34:00,
2013-04-10 01:39:00,17.2,2.8,29.58,North,0,0.0,-999.0,52,0.00,,,-99.99,,2013-04-10 09:39:00,
2013-04-10 01:44:00,17.1,3.4,29.58,North,0,0.0,-999.0,54,0.00,,,-99.99,,2013-04-10 09:44:00,
2013-04-10 01:49:00,16.9,2.8,29.58,North,0,0.0,-999.0,53,0.00,,,-99.99,,2013-04-10 09:49:00,
2013-04-10 01:54:00,16.9,3.0,29.58,North,0,0.0,-999.0,53,0.00,,,-99.99,,2013-04-10 09:54:00,
2013-04-10 01:59:00,16.9,3.8,29.61,North,0,0.0,-999.0,55,0.00,,,-99.99,,2013-04-10 09:59:00,
2013-04-10 02:04:00,17.1,3.4,29.61,North,0,0.0,-999.0,54,0.00,,,-99.99,,2013-04-10 10:04:00,
2013-04-10 02:09:00,17.1,3.1,29.61,North,0,0.0,-999.0,53,0.00,,,-99.99,,2013-04-10 10:09:00,
2013-04-10 02:14:00,16.8,3.2,29.61,North,0,0.0,-999.0,54,0.00,,,-99.99,,2013-04-10 10:14:00,
2013-04-10 02:19:00,16.8,2.4,29.61,North,0,0.0,-999.0,52,0.00,,,-99.99,,2013-04-10 10:19:00,
2013-04-10 02:24:00,16.8,3.1,29.61,North,0,0.0,-999.0,54,0.00,,,-99.99,,2013-04-10 10:24:00,
2013-04-10 02:29:00,16.8,3.6,29.61,North,0,0.0,-999.0,55,0.00,,,-99.99,,2013-04-10 10:29:00,
2013-04-10 02:34:00,17.0,3.2,29.61,North,0,0.0,-999.0,54,0.00,,,-99.99,,2013-04-10 10:34:00,
2013-04-10 02:39:00,17.0,3.4,29.61,North,0,0.0,-999.0,54,0.00,,,-99.99,,2013-04-10 10:39:00,
2013-04-10 02:44:00,17.1,2.9,29.61,North,0,0.0,-999.0,53,0.00,,,-99.99,,2013-04-10 10:44:00,
2013-04-10 02:49:00,16.9,2.7,29.61,North,0,0.0,-999.0,53,0.00,,,-99.99,,2013-04-10 10:49:00,
2013-04-10 02:54:00,16.8,4.2,29.61,North,0,0.0,-999.0,56,0.00,,,-99.99,,2013-04-10 10:54:00,
2013-04-10 02:59:00,16.8,2.8,29.63,North,0,0.0,-999.0,53,0.00,,,-99.99,,2013-04-10 10:59:00,
2013-04-10 03:04:00,16.8,4.3,29.63,North,0,0.0,-999.0,57,0.00,,,-99.99,,2013-04-10 11:04:00,
2013-04-10 03:09:00,17.1,3.1,29.63,North,0,0.0,-999.0,53,0.00,,,-99.99,,2013-04-10 11:09:00,
2013-04-10 03:14:00,17.0,3.3,29.63,North,0,0.0,-999.0,54,0.00,,,-99.99,,2013-04-10 11:14:00,
2013-04-10 03:19:00,17.0,3.9,29.63,North,0,0.0,-999.0,55,0.00,,,-99.99,,2013-04-10 11:19:00,
2013-04-10 03:24:00,17.0,4.3,29.63,North,0,0.0,-999.0,56,0.00,,,-99.99,,2013-04-10 11:24:00,
2013-04-10 03:29:00,17.1,3.5,29.63,North,0,0.0,-999.0,54,0.00,,,-99.99,,2013-04-10 11:29:00,
2013-04-10 03:34:00,17.1,3.2,29.63,North,0,0.0,-999.0,53,0.00,,,-99.99,,2013-04-10 11:34:00,
2013-04-10 03:39:00,17.1,3.8,29.63,North,0,0.0,-999.0,55,0.00,,,-99.99,,2013-04-10 11:39:00,
2013-04-10 03:44:00,17.0,4.1,29.63,North,0,0.0,-999.0,56,0.00,,,-99.99,,2013-04-10 11:44:00,
2013-04-10 03:49:00,17.1,3.6,29.63,North,0,0.0,-999.0,54,0.00,,,-99.99,,2013-04-10 11:49:00,
2013-04-10 03:54:00,17.0,4.0,29.63,North,0,0.0,-999.0,55,0.00,,,-99.99,,2013-04-10 11:54:00,
2013-04-10 03:59:00,16.9,2.7,29.64,North,0,0.0,-999.0,52,0.00,,,-99.99,,2013-04-10 11:59:00,
2013-04-10 04:04:00,16.9,3.7,29.64,North,0,0.0,-999.0,55,0.00,,,-99.99,,2013-04-10 12:04:00,
2013-04-10 04:09:00,17.0,4.1,29.64,North,0,0.0,-999.0,56,0.00,,,-99.99,,2013-04-10 12:09:00,
2013-04-10 04:14:00,16.8,3.8,29.64,North,0,0.0,-999.0,56,0.00,,,-99.99,,2013-04-10 12:14:00,
2013-04-10 04:19:00,16.8,3.8,29.64,North,0,0.0,-999.0,56,0.00,,,-99.99,,2013-04-10 12:19:00,
2013-04-10 04:24:00,16.7,3.1,29.64,North,0,0.0,-999.0,54,0.00,,,-99.99,,2013-04-10 12:24:00,
2013-04-10 04:29:00,16.7,3.2,29.64,North,0,0.0,-999.0,54,0.00,,,-99.99,,2013-04-10 12:29:00,
2013-04-10 04:34:00,16.5,3.3,29.64,North,0,0.0,-999.0,55,0.00,,,-99.99,,2013-04-10 12:34:00,
2013-04-10 04:39:00,16.6,3.9,29.64,North,0,0.0,-999.0,56,0.00,,,-99.99,,2013-04-10 12:39:00,
2013-04-10 04:44:00,16.7,3.4,29.64,North,0,0.0,-999.0,55,0.00,,,-99.99,,2013-04-10 12:44:00,
2013-04-10 04:49:00,16.8,3.4,29.64,North,0,0.0,-999.0,54,0.00,,,-99.99,,2013-04-10 12:49:00,
2013-04-10 04:54:00,16.7,3.3,29.64,North,0,0.0,-999.0,55,0.00,,,-99.99,,2013-04-10 12:54:00,
2013-04-10 04:59:00,16.7,1.9,29.65,North,0,0.0,-999.0,51,0.00,,,-99.99,,2013-04-10 12:59:00,
2013-04-10 05:04:00,16.8,3.0,29.65,North,0,0.0,-999.0,53,0.00,,,-99.99,,2013-04-10 13:04:00,
2013-04-10 05:09:00,16.5,2.2,29.65,North,0,0.0,-999.0,52,0.00,,,-99.99,,2013-04-10 13:09:00,
2013-04-10 05:14:00,16.5,2.0,29.65,North,0,0.0,-999.0,52,0.00,,,-99.99,,2013-04-10 13:14:00,
2013-04-10 05:19:00,16.4,2.8,29.65,North,0,0.0,-999.0,54,0.00,,,-99.99,,2013-04-10 13:19:00,
2013-04-10 05:24:00,16.4,2.8,29.65,North,0,0.0,-999.0,54,0.00,,,-99.99,,2013-04-10 13:24:00,
2013-04-10 05:29:00,16.4,2.8,29.65,North,0,0.0,-999.0,54,0.00,,,-99.99,,2013-04-10 13:29:00,
2013-04-10 05:34:00,16.4,3.3,29.65,North,0,0.0,-999.0,55,0.00,,,-99.99,,2013-04-10 13:34:00,
2013-04-10 05:39:00,16.4,2.0,29.65,North,0,0.0,-999.0,52,0.00,,,-99.99,,2013-04-10 13:39:00,
2013-04-10 05:44:00,16.5,2.3,29.65,North,0,0.0,-999.0,53,0.00,,,-99.99,,2013-04-10 13:44:00,
2013-04-10 05:49:00,16.4,1.8,29.65,North,0,0.0,-999.0,51,0.00,,,-99.99,,2013-04-10 13:49:00,
2013-04-10 05:54:00,16.2,2.0,29.65,North,0,0.0,-999.0,52,0.00,,,-99.99,,2013-04-10 13:54:00,
2013-04-10 05:59:00,16.3,1.9,29.68,North,0,0.0,-999.0,52,0.00,,,-99.99,,2013-04-10 13:59:00,
2013-04-10 06:05:00,15.9,1.7,29.68,North,0,0.0,-999.0,52,0.00,,,-99.99,,2013-04-10 14:05:00,
2013-04-10 06:10:00,16.0,2.4,29.68,North,0,0.0,-999.0,54,0.00,,,-99.99,,2013-04-10 14:10:00,
2013-04-10 06:15:00,16.3,2.5,29.68,North,0,0.0,-999.0,53,0.00,,,-99.99,,2013-04-10 14:15:00,
2013-04-10 06:20:00,16.4,2.3,29.68,North,0,0.0,-999.0,53,0.00,,,-99.99,,2013-04-10 14:20:00,
2013-04-10 06:25:00,16.4,4.0,29.68,North,0,0.0,-999.0,57,0.00,,,-99.99,,2013-04-10 14:25:00,
2013-04-10 06:30:00,16.7,2.2,29.68,North,0,0.0,-999.0,52,0.00,,,-99.99,,2013-04-10 14:30:00,
2013-04-10 06:35:00,16.6,1.6,29.68,North,0,0.0,-999.0,51,0.00,,,-99.99,,2013-04-10 14:35:00,
2013-04-10 06:41:00,16.8,1.7,29.68,North,0,0.0,-999.0,50,0.00,,,-99.99,,2013-04-10 14:41:00,
2013-04-10 06:47:00,16.6,2.0,29.68,North,0,0.0,-999.0,51,0.00,,,-99.99,,2013-04-10 14:47:00,
2013-04-10 06:54:00,16.2,1.7,29.68,North,0,0.0,-999.0,52,0.00,,,-99.99,,2013-04-10 14:54:00,
2013-04-10 06:59:00,16.1,2.1,29.69,North,0,0.0,-999.0,53,0.00,,,-99.99,,2013-04-10 14:59:00,
2013-04-10 07:04:00,16.0,1.8,29.69,North,0,0.0,-999.0,52,0.00,,,-99.99,,2013-04-10 15:04:00,
2013-04-10 07:09:00,16.1,2.1,29.69,North,0,0.0,-999.0,53,0.00,,,-99.99,,2013-04-10 15:09:00,
2013-04-10 07:14:00,15.8,1.9,29.69,North,0,0.0,-999.0,53,0.00,,,-99.99,,2013-04-10 15:14:00,
2013-04-10 07:20:00,15.4,2.1,29.69,North,0,0.0,-999.0,54,0.00,,,-99.99,,2013-04-10 15:20:00,
2013-04-10 07:25:00,15.2,2.1,29.69,North,0,0.0,-999.0,55,0.00,,,-99.99,,2013-04-10 15:25:00,
2013-04-10 07:30:00,15.4,2.4,29.69,North,0,0.0,-999.0,55,0.00,,,-99.99,,2013-04-10 15:30:00,
2013-04-10 07:35:00,15.4,2.4,29.69,North,0,0.0,-999.0,55,0.00,,,-99.99,,2013-04-10 15:35:00,
2013-04-10 07:40:00,15.4,2.7,29.69,North,0,0.0,-999.0,56,0.00,,,-99.99,,2013-04-10 15:40:00,
2013-04-10 07:46:00,16.2,2.5,29.69,North,0,0.0,-999.0,54,0.00,,,-99.99,,2013-04-10 15:46:00,
2013-04-10 07:51:00,15.7,1.7,29.69,North,0,0.0,-999.0,53,0.00,,,-99.99,,2013-04-10 15:51:00,
2013-04-10 07:56:00,16.0,1.7,29.69,North,0,0.0,-999.0,52,0.00,,,-99.99,,2013-04-10 15:56:00,
2013-04-10 08:01:00,16.0,1.9,29.70,North,0,0.0,-999.0,53,0.00,,,-99.99,,2013-04-10 16:01:00,
2013-04-10 08:07:00,16.5,1.4,29.70,North,0,0.0,-999.0,50,0.00,,,-99.99,,2013-04-10 16:07:00,
2013-04-10 08:12:00,16.5,2.7,29.70,North,0,0.0,-999.0,53,0.00,,,-99.99,,2013-04-10 16:12:00,
2013-04-10 08:17:00,17.4,2.1,29.70,North,0,0.0,-999.0,50,0.00,,,-99.99,,2013-04-10 16:17:00,
2013-04-10 08:22:00,18.1,2.5,29.70,North,0,0.0,-999.0,49,0.00,,,-99.99,,2013-04-10 16:22:00,
2013-04-10 08:27:00,18.5,1.3,29.70,North,0,0.0,-999.0,46,0.00,,,-99.99,,2013-04-10 16:27:00,
2013-04-10 08:32:00,19.8,1.4,29.70,North,0,0.0,-999.0,44,0.00,,,-99.99,,2013-04-10 16:32:00,
2013-04-10 08:37:00,21.7,2.5,29.70,North,0,0.0,-999.0,42,0.00,,,-99.99,,2013-04-10 16:37:00,
2013-04-10 08:42:00,21.5,2.8,29.70,North,0,0.0,-999.0,43,0.00,,,-99.99,,2013-04-10 16:42:00,
2013-04-10 08:47:00,21.3,2.9,29.70,North,0,0.0,-999.0,44,0.00,,,-99.99,,2013-04-10 16:47:00,
2013-04-10 08:52:00,21.4,2.4,29.70,North,0,0.0,-999.0,43,0.00,,,-99.99,,2013-04-10 16:52:00,
2013-04-10 08:57:00,21.8,3.2,29.70,North,0,0.0,-999.0,43,0.00,,,-99.99,,2013-04-10 16:57:00,
2013-04-10 09:02:00,22.2,1.8,29.72,North,0,0.0,-999.0,40,0.00,,,-99.99,,2013-04-10 17:02:00,
2013-04-10 09:07:00,22.1,2.4,29.72,North,0,0.0,-999.0,41,0.00,,,-99.99,,2013-04-10 17:07:00,
2013-04-10 09:12:00,23.2,2.5,29.72,North,0,0.0,-999.0,40,0.00,,,-99.99,,2013-04-10 17:12:00,
2013-04-10 09:18:00,23.3,1.9,29.72,North,0,0.0,-999.0,38,0.00,,,-99.99,,2013-04-10 17:18:00,
2013-04-10 09:23:00,24.5,1.4,29.72,North,0,0.0,-999.0,36,0.00,,,-99.99,,2013-04-10 17:23:00,
2013-04-10 09:28:00,24.9,1.8,29.72,North,0,0.0,-999.0,36,0.00,,,-99.99,,2013-04-10 17:28:00,
2013-04-10 09:33:00,24.8,2.4,29.72,North,0,0.0,-999.0,37,0.00,,,-99.99,,2013-04-10 17:33:00,
2013-04-10 09:39:00,24.6,0.4,29.72,North,0,0.0,-999.0,34,0.00,,,-99.99,,2013-04-10 17:39:00,
2013-04-10 09:44:00,24.1,4.3,29.72,North,0,0.0,-999.0,42,0.00,,,-99.99,,2013-04-10 17:44:00,
2013-04-10 09:49:00,24.1,2.9,29.72,North,0,0.0,-999.0,39,0.00,,,-99.99,,2013-04-10 17:49:00,
2013-04-10 09:54:00,24.1,0.4,29.72,North,0,0.0,-999.0,34,0.00,,,-99.99,,2013-04-10 17:54:00,
2013-04-10 09:59:00,24.8,3.3,29.74,North,0,0.0,-999.0,39,0.00,,,-99.99,,2013-04-10 17:59:00,
2013-04-10 10:04:00,24.4,1.5,29.74,North,0,0.0,-999.0,36,0.00,,,-99.99,,2013-04-10 18:04:00,
2013-04-10 10:09:00,25.1,1.0,29.74,North,0,0.0,-999.0,34,0.00,,,-99.99,,2013-04-10 18:09:00,
2013-04-10 10:14:00,24.8,2.1,29.74,North,0,0.0,-999.0,36,0.00,,,-99.99,,2013-04-10 18:14:00,
2013-04-10 10:19:00,24.1,2.5,29.74,North,0,0.0,-999.0,38,0.00,,,-99.99,,2013-04-10 18:19:00,
2013-04-10 10:24:00,24.5,1.4,29.74,North,0,0.0,-999.0,36,0.00,,,-99.99,,2013-04-10 18:24:00,
2013-04-10 10:29:00,23.8,1.1,29.74,North,0,0.0,-999.0,36,0.00,,,-99.99,,2013-04-10 18:29:00,
2013-04-10 10:34:00,23.8,0.3,29.74,North,0,0.0,-999.0,35,0.00,,,-99.99,,2013-04-10 18:34:00,
2013-04-10 10:39:00,24.1,1.5,29.74,North,0,0.0,-999.0,36,0.00,,,-99.99,,2013-04-10 18:39:00,
2013-04-10 10:45:00,24.9,1.3,29.74,North,0,0.0,-999.0,35,0.00,,,-99.99,,2013-04-10 18:45:00,
2013-04-10 10:50:00,25.5,0.5,29.74,North,0,0.0,-999.0,33,0.00,,,-99.99,,2013-04-10 18:50:00,
2013-04-10 10:55:00,24.9,0.6,29.74,North,0,0.0,-999.0,34,0.00,,,-99.99,,2013-04-10 18:55:00,
2013-04-10 11:00:00,25.5,0.9,29.76,North,0,0.0,-999.0,33,0.00,,,-99.99,,2013-04-10 19:00:00,
2013-04-10 11:05:00,25.4,0.5,29.76,North,0,0.0,-999.0,33,0.00,,,-99.99,,2013-04-10 19:05:00,
2013-04-10 11:11:00,25.7,1.7,29.76,North,0,0.0,-999.0,34,0.00,,,-99.99,,2013-04-10 19:11:00,
2013-04-10 11:16:00,25.7,2.0,29.76,North,0,0.0,-999.0,35,0.00,,,-99.99,,2013-04-10 19:16:00,
2013-04-10 11:22:00,25.9,0.7,29.76,North,0,0.0,-999.0,32,0.00,,,-99.99,,2013-04-10 19:22:00,
2013-04-10 11:27:00,25.0,0.2,29.76,North,0,0.0,-999.0,33,0.00,,,-99.99,,2013-04-10 19:27:00,
2013-04-10 11:33:00,25.1,-0.1,29.76,North,0,0.0,-999.0,32,0.00,,,-99.99,,2013-04-10 19:33:00,
2013-04-10 11:38:00,24.5,1.9,29.76,North,0,0.0,-999.0,36,0.00,,,-99.99,,2013-04-10 19:38:00,
2013-04-10 11:43:00,24.8,2.7,29.76,North,0,0.0,-999.0,37,0.00,,,-99.99,,2013-04-10 19:43:00,
2013-04-10 11:48:00,24.6,2.5,29.76,North,0,0.0,-999.0,37,0.00,,,-99.99,,2013-04-10 19:48:00,
2013-04-10 11:53:00,25.0,2.7,29.76,North,0,0.0,-999.0,37,0.00,,,-99.99,,2013-04-10 19:53:00,
2013-04-10 11:59:00,25.6,2.2,29.76,North,0,0.0,-999.0,35,0.00,,,-99.99,,2013-04-10 19:59:00,
2013-04-10 12:04:00,26.2,2.0,29.77,North,0,0.0,-999.0,34,0.00,,,-99.99,,2013-04-10 20:04:00,
2013-04-10 12:09:00,25.6,2.6,29.77,North,0,0.0,-999.0,36,0.00,,,-99.99,,2013-04-10 20:09:00,
2013-04-10 12:14:00,25.5,2.9,29.77,North,0,0.0,-999.0,37,0.00,,,-99.99,,2013-04-10 20:14:00,
2013-04-10 12:19:00,25.5,2.3,29.77,North,0,0.0,-999.0,36,0.00,,,-99.99,,2013-04-10 20:19:00,
2013-04-10 12:24:00,26.2,3.6,29.77,North,0,0.0,-999.0,37,0.00,,,-99.99,,2013-04-10 20:24:00,
2013-04-10 12:29:00,24.2,0.8,29.77,North,0,0.0,-999.0,35,0.00,,,-99.99,,2013-04-10 20:29:00,
2013-04-10 12:34:00,25.0,1.2,29.77,North,0,0.0,-999.0,35,0.00,,,-99.99,,2013-04-10 20:34:00,
2013-04-10 12:39:00,26.0,5.0,29.77,North,0,0.0,-999.0,40,0.00,,,-99.99,,2013-04-10 20:39:00,
2013-04-10 12:44:00,27.1,4.0,29.77,North,0,0.0,-999.0,36,0.00,,,-99.99,,2013-04-10 20:44:00,
2013-04-10 12:49:00,27.6,2.9,29.77,North,0,0.0,-999.0,33,0.00,,,-99.99,,2013-04-10 20:49:00,
2013-04-10 12:54:00,26.3,3.5,29.77,North,0,0.0,-999.0,36,0.00,,,-99.99,,2013-04-10 20:54:00,
2013-04-10 12:59:00,26.2,3.3,29.79,North,0,0.0,-999.0,36,0.00,,,-99.99,,2013-04-10 20:59:00,
2013-04-10 13:04:00,25.5,3.4,29.79,North,0,0.0,-999.0,37,0.00,,,-99.99,,2013-04-10 21:04:00,
2013-04-10 13:09:00,24.7,4.2,29.79,North,0,0.0,-999.0,40,0.00,,,-99.99,,2013-04-10 21:09:00,
2013-04-10 13:14:00,25.5,3.6,29.79,North,0,0.0,-999.0,38,0.00,,,-99.99,,2013-04-10 21:14:00,
2013-04-10 13:19:00,25.4,3.7,29.79,North,0,0.0,-999.0,38,0.00,,,-99.99,,2013-04-10 21:19:00,
2013-04-10 13:24:00,26.8,3.4,29.79,North,0,0.0,-999.0,36,0.00,,,-99.99,,2013-04-10 21:24:00,
2013-04-10 13:29:00,26.2,3.5,29.79,North,0,0.0,-999.0,37,0.00,,,-99.99,,2013-04-10 21:29:00,
2013-04-10 13:34:00,27.8,3.5,29.79,North,0,0.0,-999.0,34,0.00,,,-99.99,,2013-04-10 21:34:00,
2013-04-10 13:39:00,25.7,2.5,29.79,North,0,0.0,-999.0,36,0.00,,,-99.99,,2013-04-10 21:39:00,
2013-04-10 13:44:00,26.5,4.4,29.79,North,0,0.0,-999.0,38,0.00,,,-99.99,,2013-04-10 21:44:00,
2013-04-10 13:49:00,26.2,5.5,29.79,North,0,0.0,-999.0,40,0.00,,,-99.99,,2013-04-10 21:49:00,
2013-04-10 13:54:00,25.6,3.4,29.79,North,0,0.0,-999.0,37,0.00,,,-99.99,,2013-04-10 21:54:00,
2013-04-10 13:59:00,26.2,3.7,29.81,North,0,0.0,-999.0,37,0.00,,,-99.99,,2013-04-10 21:59:00,
2013-04-10 14:04:00,25.7,4.4,29.81,North,0,0.0,-999.0,39,0.00,,,-99.99,,2013-04-10 22:04:00,
2013-04-10 14:09:00,26.6,4.2,29.81,North,0,0.0,-999.0,37,0.00,,,-99.99,,2013-04-10 22:09:00,
2013-04-10 14:14:00,27.4,2.8,29.81,North,0,0.0,-999.0,34,0.00,,,-99.99,,2013-04-10 22:14:00,
2013-04-10 14:19:00,26.4,3.4,29.81,North,0,0.0,-999.0,36,0.00,,,-99.99,,2013-04-10 22:19:00,
2013-04-10 14:24:00,27.0,3.2,29.81,North,0,0.0,-999.0,35,0.00,,,-99.99,,2013-04-10 22:24:00,
2013-04-10 14:29:00,25.9,3.3,29.81,North,0,0.0,-999.0,37,0.00,,,-99.99,,2013-04-10 22:29:00,
2013-04-10 14:35:00,26.3,5.9,29.81,North,0,0.0,-999.0,41,0.00,,,-99.99,,2013-04-10 22:35:00,
2013-04-10 14:40:00,27.8,4.0,29.81,North,0,0.0,-999.0,35,0.00,,,-99.99,,2013-04-10 22:40:00,
2013-04-10 14:45:00,27.3,4.3,29.81,North,0,0.0,-999.0,36,0.00,,,-99.99,,2013-04-10 22:45:00,
2013-04-10 14:50:00,27.7,5.3,29.81,North,0,0.0,-999.0,37,0.00,,,-99.99,,2013-04-10 22:50:00,
2013-04-10 14:55:00,27.0,2.9,29.81,North,0,0.0,-999.0,34,0.00,,,-99.99,,2013-04-10 22:55:00,
2013-04-10 15:00:00,28.1,4.5,29.82,North,0,0.0,-999.0,36,0.00,,,-99.99,,2013-04-10 23:00:00,
2013-04-10 15:05:00,28.5,5.1,29.82,North,0,0.0,-999.0,36,0.00,,,-99.99,,2013-04-10 23:05:00,
2013-04-10 15:10:00,27.5,4.8,29.82,North,0,0.0,-999.0,37,0.00,,,-99.99,,2013-04-10 23:10:00,
2013-04-10 15:15:00,26.7,4.6,29.82,North,0,0.0,-999.0,38,0.00,,,-99.99,,2013-04-10 23:15:00,
2013-04-10 15:20:00,27.8,3.1,29.82,North,0,0.0,-999.0,34,0.00,,,-99.99,,2013-04-10 23:20:00,
2013-04-10 15:25:00,27.7,3.6,29.82,North,0,0.0,-999.0,34,0.00,,,-99.99,,2013-04-10 23:25:00,
2013-04-10 15:30:00,28.2,3.9,29.82,North,0,0.0,-999.0,34,0.00,,,-99.99,,2013-04-10 23:30:00,
2013-04-10 15:35:00,27.9,4.1,29.82,North,0,0.0,-999.0,35,0.00,,,-99.99,,2013-04-10 23:35:00,
2013-04-10 15:40:00,26.6,5.5,29.82,North,0,0.0,-999.0,40,0.00,,,-99.99,,2013-04-10 23:40:00,
2013-04-10 15:45:00,27.3,6.3,29.82,North,0,0.0,-999.0,40,0.00,,,-99.99,,2013-04-10 23:45:00,
2013-04-10 15:50:00,27.9,4.2,29.82,North,0,0.0,-999.0,35,0.00,,,-99.99,,2013-04-10 23:50:00,
2013-04-10 15:55:00,28.5,4.4,29.82,North,0,0.0,-999.0,35,0.00,,,-99.99,,2013-04-10 23:55:00,
2013-04-10 16:00:00,27.7,2.6,29.84,North,0,0.0,-999.0,33,0.00,,,-99.99,,2013-04-11 00:00:00,
2013-04-10 16:05:00,27.8,4.2,29.84,North,0,0.0,-999.0,35,0.00,,,-99.99,,2013-04-11 00:05:00,
2013-04-10 16:10:00,26.8,4.0,29.84,North,0,0.0,-999.0,37,0.00,,,-99.99,,2013-04-11 00:10:00,
2013-04-10 16:17:00,27.2,3.3,29.84,North,0,0.0,-999.0,35,0.00,,,-99.99,,2013-04-11 00:17:00,
2013-04-10 16:23:00,27.0,4.5,29.84,North,0,0.0,-999.0,37,0.00,,,-99.99,,2013-04-11 00:23:00,
2013-04-10 16:29:00,27.3,3.5,29.84,North,0,0.0,-999.0,35,0.00,,,-99.99,,2013-04-11 00:29:00,
2013-04-10 16:34:00,27.0,3.8,29.84,North,0,0.0,-999.0,36,0.00,,,-99.99,,2013-04-11 00:34:00,
2013-04-10 16:39:00,25.9,3.8,29.84,North,0,0.0,-999.0,37,0.00,,,-99.99,,2013-04-11 00:39:00,
2013-04-10 16:44:00,25.4,4.5,29.84,North,0,0.0,-999.0,40,0.00,,,-99.99,,2013-04-11 00:44:00,
2013-04-10 16:49:00,25.2,4.7,29.84,North,0,0.0,-999.0,40,0.00,,,-99.99,,2013-04-11 00:49:00,
2013-04-10 16:54:00,25.5,5.1,29.84,North,0,0.0,-999.0,41,0.00,,,-99.99,,2013-04-11 00:54:00,
2013-04-10 16:59:00,25.4,5.2,29.84,North,0,0.0,-999.0,41,0.00,,,-99.99,,2013-04-11 00:59:00,
2013-04-10 17:04:00,25.7,5.9,29.84,North,0,0.0,-999.0,42,0.00,,,-99.99,,2013-04-11 01:04:00,
2013-04-10 17:09:00,25.7,5.5,29.84,North,0,0.0,-999.0,41,0.00,,,-99.99,,2013-04-11 01:09:00,
2013-04-10 17:14:00,25.1,5.9,29.84,North,0,0.0,-999.0,43,0.00,,,-99.99,,2013-04-11 01:14:00,
2013-04-10 17:19:00,25.0,4.8,29.84,North,0,0.0,-999.0,41,0.00,,,-99.99,,2013-04-11 01:19:00,
2013-04-10 17:24:00,24.8,6.6,29.84,North,0,0.0,-999.0,45,0.00,,,-99.99,,2013-04-11 01:24:00,
2013-04-10 17:29:00,24.6,6.2,29.84,North,0,0.0,-999.0,44,0.00,,,-99.99,,2013-04-11 01:29:00,
2013-04-10 17:34:00,24.4,6.1,29.84,North,0,0.0,-999.0,45,0.00,,,-99.99,,2013-04-11 01:34:00,
2013-04-10 17:39:00,24.5,6.3,29.84,North,0,0.0,-999.0,45,0.00,,,-99.99,,2013-04-11 01:39:00,
2013-04-10 17:44:00,24.2,7.5,29.84,North,0,0.0,-999.0,48,0.00,,,-99.99,,2013-04-11 01:44:00,
2013-04-10 17:49:00,24.1,7.6,29.84,North,0,0.0,-999.0,48,0.00,,,-99.99,,2013-04-11 01:49:00,
2013-04-10 17:54:00,24.1,8.2,29.84,North,0,0.0,-999.0,50,0.00,,,-99.99,,2013-04-11 01:54:00,
2013-04-10 17:59:00,24.0,6.8,29.85,North,0,0.0,-999.0,47,0.00,,,-99.99,,2013-04-11 01:59:00,
2013-04-10 18:04:00,24.9,7.9,29.85,North,0,0.0,-999.0,47,0.00,,,-99.99,,2013-04-11 02:04:00,
2013-04-10 18:09:00,25.3,8.0,29.85,North,0,0.0,-999.0,47,0.00,,,-99.99,,2013-04-11 02:09:00,
2013-04-10 18:14:00,25.5,7.7,29.85,North,0,0.0,-999.0,46,0.00,,,-99.99,,2013-04-11 02:14:00,
2013-04-10 18:19:00,25.2,7.5,29.85,North,0,0.0,-999.0,46,0.00,,,-99.99,,2013-04-11 02:19:00,
2013-04-10 18:24:00,24.0,6.5,29.85,North,0,0.0,-999.0,46,0.00,,,-99.99,,2013-04-11 02:24:00,
2013-04-10 18:29:00,24.9,7.1,29.85,North,0,0.0,-999.0,46,0.00,,,-99.99,,2013-04-11 02:29:00,
2013-04-10 18:34:00,24.8,6.5,29.85,North,0,0.0,-999.0,45,0.00,,,-99.99,,2013-04-11 02:34:00,
2013-04-10 18:39:00,24.9,6.1,29.85,North,0,0.0,-999.0,43,0.00,,,-99.99,,2013-04-11 02:39:00,
2013-04-10 18:44:00,24.5,7.1,29.85,North,0,0.0,-999.0,46,0.00,,,-99.99,,2013-04-11 02:44:00,
2013-04-10 18:49:00,24.6,6.9,29.85,North,0,0.0,-999.0,46,0.00,,,-99.99,,2013-04-11 02:49:00,
2013-04-10 18:54:00,24.6,7.7,29.85,North,0,0.0,-999.0,48,0.00,,,-99.99,,2013-04-11 02:54:00,
2013-04-10 18:59:00,24.6,7.1,29.86,North,0,0.0,-999.0,46,0.00,,,-99.99,,2013-04-11 02:59:00,
2013-04-10 19:04:00,25.0,7.8,29.86,North,0,0.0,-999.0,47,0.00,,,-99.99,,2013-04-11 03:04:00,
2013-04-10 19:09:00,24.9,8.1,29.86,North,0,0.0,-999.0,48,0.00,,,-99.99,,2013-04-11 03:09:00,
2013-04-10 19:14:00,24.3,8.2,29.86,North,0,0.0,-999.0,49,0.00,,,-99.99,,2013-04-11 03:14:00,
2013-04-10 19:19:00,24.3,8.8,29.86,North,0,0.0,-999.0,51,0.00,,,-99.99,,2013-04-11 03:19:00,
2013-04-10 19:24:00,24.5,8.1,29.86,North,0,0.0,-999.0,49,0.00,,,-99.99,,2013-04-11 03:24:00,
2013-04-10 19:29:00,24.2,7.5,29.86,North,0,0.0,-999.0,48,0.00,,,-99.99,,2013-04-11 03:29:00,
2013-04-10 19:34:00,24.1,7.0,29.86,North,0,0.0,-999.0,47,0.00,,,-99.99,,2013-04-11 03:34:00,
2013-04-10 19:39:00,24.1,7.5,29.86,North,0,0.0,-999.0,48,0.00,,,-99.99,,2013-04-11 03:39:00,
2013-04-10 19:44:00,24.1,7.9,29.86,North,0,0.0,-999.0,49,0.00,,,-99.99,,2013-04-11 03:44:00,
2013-04-10 19:49:00,23.7,7.9,29.86,North,0,0.0,-999.0,50,0.00,,,-99.99,,2013-04-11 03:49:00,
2013-04-10 19:54:00,23.6,7.7,29.86,North,0,0.0,-999.0,49,0.00,,,-99.99,,2013-04-11 03:54:00,
2013-04-10 19:59:00,23.3,7.3,29.86,North,0,0.0,-999.0,49,0.00,,,-99.99,,2013-04-11 03:59:00,
2013-04-10 20:00:00,23.5,7.8,29.86,North,0,0.0,-999.0,50,0.00,,,-99.99,,2013-04-11 04:00:00,
2013-04-10 20:01:00,23.4,7.8,29.86,North,0,0.0,-999.0,50,0.00,,,-99.99,,2013-04-11 04:01:00,
2013-04-10 20:03:00,23.3,7.7,29.86,North,0,0.0,-999.0,50,0.00,,,-99.99,,2013-04-11 04:03:00,
2013-04-10 20:08:00,23.0,8.1,29.86,North,0,0.0,-999.0,52,0.00,,,-99.99,,2013-04-11 04:08:00,
2013-04-10 20:11:00,23.0,8.0,29.86,North,0,0.0,-999.0,52,0.00,,,-99.99,,2013-04-11 04:11:00,
2013-04-10 20:16:00,22.7,8.2,29.86,North,0,0.0,-999.0,53,0.00,,,-99.99,,2013-04-11 04:16:00,
2013-04-10 20:21:00,22.7,8.1,29.86,North,0,0.0,-999.0,52,0.00,,,-99.99,,2013-04-11 04:21:00,
2013-04-10 20:27:00,22.7,6.8,29.86,North,0,0.0,-999.0,49,0.00,,,-99.99,,2013-04-11 04:27:00,
2013-04-10 20:32:00,22.5,7.7,29.86,North,0,0.0,-999.0,52,0.00,,,-99.99,,2013-04-11 04:32:00,
2013-04-10 20:37:00,22.0,7.2,29.86,North,0,0.0,-999.0,52,0.00,,,-99.99,,2013-04-11 04:37:00,
2013-04-10 20:42:00,22.1,7.8,29.86,North,0,0.0,-999.0,53,0.00,,,-99.99,,2013-04-11 04:42:00,
2013-04-10 20:47:00,22.3,7.8,29.86,North,0,0.0,-999.0,53,0.00,,,-99.99,,2013-04-11 04:47:00,
2013-04-10 20:52:00,22.2,7.4,29.86,North,0,0.0,-999.0,52,0.00,,,-99.99,,2013-04-11 04:52:00,
2013-04-10 20:57:00,22.0,7.8,29.86,North,0,0.0,-999.0,53,0.00,,,-99.99,,2013-04-11 04:57:00,
2013-04-10 21:02:00,21.9,7.6,29.88,North,0,0.0,-999.0,53,0.00,,,-99.99,,2013-04-11 05:02:00,
2013-04-10 21:07:00,21.7,7.5,29.88,North,0,0.0,-999.0,53,0.00,,,-99.99,,2013-04-11 05:07:00,
2013-04-10 21:13:00,21.8,7.8,29.88,North,0,0.0,-999.0,54,0.00,,,-99.99,,2013-04-11 05:13:00,
2013-04-10 21:18:00,21.8,7.0,29.88,North,0,0.0,-999.0,52,0.00,,,-99.99,,2013-04-11 05:18:00,
2013-04-10 21:23:00,21.6,7.1,29.88,North,0,0.0,-999.0,52,0.00,,,-99.99,,2013-04-11 05:23:00,
2013-04-10 21:28:00,21.3,7.3,29.88,North,0,0.0,-999.0,54,0.00,,,-99.99,,2013-04-11 05:28:00,
2013-04-10 21:33:00,21.3,7.2,29.88,North,0,0.0,-999.0,53,0.00,,,-99.99,,2013-04-11 05:33:00,
2013-04-10 21:40:00,21.3,7.2,29.88,North,0,0.0,-999.0,54,0.00,,,-99.99,,2013-04-11 05:40:00,
2013-04-10 21:45:00,21.1,7.7,29.88,North,0,0.0,-999.0,55,0.00,,,-99.99,,2013-04-11 05:45:00,
2013-04-10 21:50:00,21.3,7.6,29.88,North,0,0.0,-999.0,55,0.00,,,-99.99,,2013-04-11 05:50:00,
2013-04-10 21:55:00,21.3,8.0,29.88,North,0,0.0,-999.0,55,0.00,,,-99.99,,2013-04-11 05:55:00,
2013-04-10 22:00:00,21.6,8.2,29.89,North,0,0.0,-999.0,55,0.00,,,-99.99,,2013-04-11 06:00:00,
2013-04-10 22:05:00,21.5,8.6,29.89,North,0,0.0,-999.0,57,0.00,,,-99.99,,2013-04-11 06:05:00,
2013-04-10 22:10:00,21.2,8.2,29.89,North,0,0.0,-999.0,56,0.00,,,-99.99,,2013-04-11 06:10:00,
2013-04-10 22:15:00,21.1,8.2,29.89,North,0,0.0,-999.0,57,0.00,,,-99.99,,2013-04-11 06:15:00,
2013-04-10 22:20:00,20.9,7.4,29.89,North,0,0.0,-999.0,55,0.00,,,-99.99,,2013-04-11 06:20:00,
2013-04-10 22:25:00,20.5,7.6,29.89,North,0,0.0,-999.0,56,0.00,,,-99.99,,2013-04-11 06:25:00,
2013-04-10 22:30:00,20.8,7.8,29.89,North,0,0.0,-999.0,56,0.00,,,-99.99,,2013-04-11 06:30:00,
2013-04-10 22:35:00,20.5,7.3,29.89,North,0,0.0,-999.0,56,0.00,,,-99.99,,2013-04-11 06:35:00,
2013-04-10 22:40:00,20.1,7.0,29.89,North,0,0.0,-999.0,56,0.00,,,-99.99,,2013-04-11 06:40:00,
2013-04-10 22:45:00,19.7,6.8,29.89,North,0,0.0,-999.0,56,0.00,,,-99.99,,2013-04-11 06:45:00,
2013-04-10 22:51:00,19.5,6.6,29.89,North,0,0.0,-999.0,56,0.00,,,-99.99,,2013-04-11 06:51:00,
2013-04-10 22:56:00,19.4,6.7,29.89,North,0,0.0,-999.0,57,0.00,,,-99.99,,2013-04-11 06:56:00,
2013-04-10 23:02:00,19.3,6.5,29.88,North,0,0.0,-999.0,56,0.00,,,-99.99,,2013-04-11 07:02:00,
2013-04-10 23:07:00,19.0,6.6,29.88,North,0,0.0,-999.0,57,0.00,,,-99.99,,2013-04-11 07:07:00,
2013-04-10 23:13:00,18.9,7.1,29.88,North,0,0.0,-999.0,59,0.00,,,-99.99,,2013-04-11 07:13:00,
2013-04-10 23:18:00,18.7,6.6,29.88,North,0,0.0,-999.0,58,0.00,,,-99.99,,2013-04-11 07:18:00,
2013-04-10 23:23:00,18.6,6.7,29.88,North,0,0.0,-999.0,59,0.00,,,-99.99,,2013-04-11 07:23:00,
2013-04-10 23:28:00,18.7,7.0,29.88,North,0,0.0,-999.0,59,0.00,,,-99.99,,2013-04-11 07:28:00,
2013-04-10 23:33:00,18.4,6.4,29.88,North,0,0.0,-999.0,58,0.00,,,-99.99,,2013-04-11 07:33:00,
2013-04-10 23:38:00,18.6,6.6,29.88,North,0,0.0,-999.0,59,0.00,,,-99.99,,2013-04-11 07:38:00,
2013-04-10 23:43:00,18.6,7.5,29.88,North,0,0.0,-999.0,61,0.00,,,-99.99,,2013-04-11 07:43:00,
2013-04-10 23:48:00,18.4,7.0,29.88,North,0,0.0,-999.0,60,0.00,,,-99.99,,2013-04-11 07:48:00,
2013-04-10 23:53:00,18.2,6.7,29.88,North,0,0.0,-999.0,60,0.00,,,-99.99,,2013-04-11 07:53:00,
2013-04-10 23:58:00,18.1,7.0,29.88,North,0,0.0,-999.0,61,0.00,,,-99.99,,2013-04-11 07:58:00,